Terminal Aerodrome Forecast
Issued by NWS Green Bay, WI

Home | Current Version | Previous Version | Graphics & Text | Print | Product List | Glossary On
Versions: 1 2 3 4 5 6 7 8 9 10 11 12 13 14 15 16 17 18 19 20 21 22 23 24 25 26 27 28 29 30 31
000
FTUS43 KGRB 181100
TAFGRB
TAF
KGRB 181130Z 1812/1912 05012G20KT P6SM SCT200
     FM190000 07009KT P6SM BKN200
     FM190800 11009KT P6SM BKN070 BKN150 WS015/13035KT=

USA.gov is the U.S. government's official web portal to all federal, state and local government web resources and services.